Regional Weather Roundup
Issued by NWS

Home | Current Version | Previous Version | Text Only | Print | Product List | Glossary Off
Versions: 1 2 3 4 5 6 7 8 9 10 11 12 13 14 15 16 17 18 19 20 21 22 23 24 25 26 27 28 29 30 31 32 33 34 35 36 37 38 39 40 41 42 43 44 45 46 47 48 49 50

000
ASUS43 KLMK 031110
RWRKY
KENTUCKY REGIONAL WEATHER ROUNDUP
NATIONAL WEATHER SERVICE LOUISVILLE KY
700 AM EDT MON AUG 03 2015

NOTE "FAIR" INDICATES FEW OR NO CLOUDS BELOW 12,000 FEET
WITH NO SIGNIFICANT WEATHER AND/OR OBSTRUCTIONS TO VISIBILITY.

KYZ001>023-026-027-061>063-070>075-031200-
WESTERN AND SOUTH CENTRAL KENTUCKY

CITY           SKY/WX    TMP DP  RH WIND       PRES   REMARKS
PADUCAH        CLEAR     74  70  87 SW7       29.88R
HENDERSON      CLEAR     72  64  78 SW5       29.86R
OWENSBORO      CLEAR     70  66  86 SW5       29.87S
HOPKINSVILLE   NOT AVBL
BOWLING GREEN  CLEAR     69  62  78 S5        29.92R
GLASGOW        CLEAR    N/A N/A N/A CALM      29.93R
$$

KYZ024-025-028>034-038-045-046-053-031200-
NORTH CENTRAL KENTUCKY

CITY           SKY/WX    TMP DP  RH WIND       PRES   REMARKS
LOUISVILLE/SDF PTCLDY    74  61  63 S5        29.87S
LOUISVILLE/LOU CLEAR     71  62  73 S3        29.88S
FORT KNOX      CLEAR     68  62  80 S3        29.88R
$$

KYZ035>037-039>044-047>052-055>060-089>105-031200-
NORTHEAST KENTUCKY

CITY           SKY/WX    TMP DP  RH WIND       PRES   REMARKS
LEXINGTON      CLEAR     67  61  81 SW6       29.92R
COVINGTON      TSTM      63  63 100 E13       29.97F FOG
FRANKFORT      CLEAR     65  60  84 SW5       29.90R
$$

KYZ054-064>069-076>088-106>120-031200-
SOUTHEAST KENTUCKY

CITY           SKY/WX    TMP DP  RH WIND       PRES   REMARKS
JACKSON        CLEAR     62  60  93 CALM      29.95R
LONDON         CLEAR     62  57  83 CALM      29.96R
SOMERSET       FOG       59  59 100 CALM      29.96S VSB<1/4
MIDDLESBORO    CLOUDY    59  59 100 CALM      29.99R FOG
MONTICELLO     SUNNY     60  60 100 CALM      29.98R
$$



USA.gov is the U.S. government's official web portal to all federal, state and local government web resources and services.